Wind_Speed
27 22 18 18 14 14 14 10 10 12 14 16 16 16 16 17 20 23 25 23 25 29 29 28 28 29 30 32 35 38 41 43 44 48 46 51 51 47 49 47 49 51 51
24 19 19 14 15 14 13 10 11 13 13 14 15 16 15 17 22 24 23 23 26 27 28 26 27 30 30 32 34 38 41 43 45 47 45 50 47 46 45 48 49 49 46
22 18 16 16 16 13 11 11 12 12 12 13 15 14 15 19 22 22 22 22 25 24 26 26 29 29 31 32 33 37 40 42 42 46 45 48 46 46 46 48 48 45 44
19 19 16 16 16 13 12 13 12 12 12 14 13 14 16 19 21 22 22 22 24 23 25 26 27 27 28 30 32 34 37 40 41 43 44 45 44 44 46 47 46 44 47
21 19 18 20 18 15 15 14 13 12 14 14 13 15 16 20 21 23 24 23 25 24 24 25 26 25 25 26 29 31 33 38 40 41 43 44 45 43 43 45 45 43 45
22 21 20 19 18 15 16 14 13 14 16 15 15 15 16 19 21 21 23 21 23 26 24 25 26 26 26 27 28 30 33 35 38 40 42 44 44 44 44 43 44 42 40
21 22 21 20 19 17 16 14 14 16 17 17 18 14 16 19 20 20 21 20 22 23 23 24 26 29 28 27 27 27 29 33 35 39 41 42 44 46 47 47 44 43 41
22 24 24 21 18 18 15 15 16 17 19 20 21 16 17 18 20 19 20 20 21 23 23 24 26 28 29 30 28 26 27 31 34 35 38 41 43 45 47 48 46 45 43
25 26 26 21 19 17 16 16 17 19 20 21 21 17 17 18 20 19 22 20 20 22 24 25 26 27 29 30 30 29 28 29 31 34 36 39 42 44 44 45 45 42 41
25 28 25 21 20 18 17 16 18 20 21 21 20 17 17 17 19 19 22 22 20 21 21 22 24 25 28 30 32 30 31 30 31 33 35 37 39 42 43 43 44 45 43
26 27 24 22 20 18 17 18 20 19 20 19 17 17 17 18 19 19 22 21 19 20 21 22 23 25 28 31 32 31 31 32 32 32 34 36 39 40 41 41 41 43 44
27 26 25 21 20 18 17 17 18 17 16 17 18 18 17 17 18 20 21 20 20 20 21 21 22 23 26 28 29 30 30 31 33 35 35 36 37 38 38 39 41 42 42
25 25 23 21 20 17 16 15 14 16 16 15 16 17 18 17 18 19 21 20 20 21 23 22 22 22 24 27 27 28 30 32 34 35 36 37 37 36 38 38 39 40 40
26 26 23 22 20 18 18 16 14 15 16 15 16 17 17 18 20 20 21 22 22 23 22 24 24 25 25 26 27 26 27 31 33 35 36 36 38 39 37 36 34 35 37
27 26 24 21 21 20 20 19 18 17 17 18 19 20 20 20 22 23 23 23 24 24 25 24 26 27 27 27 26 27 27 29 30 33 33 34 37 39 40 38 36 34 32
28 26 22 21 22 23 22 22 19 21 23 23 23 24 23 22 24 26 25 26 28 28 27 28 28 30 30 31 30 30 31 31 31 32 32 32 34 36 38 39 38 35 32
26 23 22 25 25 23 22 22 23 24 24 24 25 26 26 26 26 28 28 29 31 30 30 30 30 31 31 31 31 31 31 33 33 32 32 33 34 35 36 38 39 38 35
26 27 25 25 26 23 23 24 26 26 26 24 25 27 26 24 25 26 27 29 30 30 30 28 29 31 31 31 30 30 31 33 33 32 33 34 35 35 36 36 36 37 36
32 30 31 28 26 25 25 24 25 25 26 26 26 26 25 26 27 27 29 30 31 32 31 30 30 29 30 31 32 33 33 32 34 35 36 36 37 37 38 38 37 35 34
29 29 28 28 25 24 25 27 29 31 29 28 27 27 27 27 27 29 30 30 31 32 31 28 28 30 32 34 33 33 34 37 38 39 40 41 43 43 42 41 39 36 35
26 29 28 28 28 28 28 29 29 29 28 28 27 25 25 26 27 29 30 31 31 30 29 29 31 34 33 33 34 36 38 40 41 44 45 47 49 48 46 44 41 38 36
26 26 26 25 26 26 25 24 24 22 19 20 23 26 28 29 31 32 31 31 32 32 32 33 34 35 36 38 39 41 43 44 47 50 51 52 51 49 45 42 41 39 37
25 22 21 22 22 20 19 19 20 22 23 26 28 28 27 28 32 34 34 34 34 35 36 37 39 40 41 42 43 44 46 49 52 52 51 49 46 43 40 38 36 36 35
25 24 24 24 22 21 22 23 24 25 25 25 28 30 32 36 38 37 36 36 37 39 40 41 42 43 44 44 45 48 51 54 52 49 46 43 40 37 36 35 35 35 35
25 24 24 24 25 25 27 27 28 30 31 32 32 33 35 37 37 36 38 38 40 41 42 44 45 45 46 47 49 51 51 48 45 42 40 37 36 36 36 35 34 36 36
29 28 28 28 29 30 30 29 31 32 34 35 34 35 38 39 39 40 40 41 42 43 43 44 46 47 50 52 51 48 45 42 40 37 36 35 34 35 36 37 36 35 33
Wind_Direction
239 247 253 250 259 267 272 274 296 316 328 332 325 323 334 339 338 341 347 345 345 346 347 349 353 354 358 357 354 349 348 347 347 349 348 348 346 344 343 341 343 348 348
237 245 247 254 265 269 269 277 295 311 321 324 316 321 331 333 340 348 351 349 348 352 353 352 358 357 358 357 354 352 352 349 350 352 352 352 353 353 352 348 350 354 350
236 242 256 269 267 265 267 277 290 307 309 308 307 322 328 336 345 351 350 349 350 350 350 351 355 356 355 356 354 355 354 350 353 356 356 356 356 360 1 358 356 359 355
240 245 260 267 276 280 271 275 290 302 304 301 307 323 331 337 346 350 349 344 347 346 348 348 348 351 351 354 354 356 354 353 356 359 357 358 356 359 2 0 360 3 3
236 244 255 265 270 271 264 272 286 299 300 302 308 318 330 334 341 347 346 342 346 342 344 342 345 344 347 351 354 357 358 358 358 0 359 360 359 358 357 0 2 3 3
239 248 256 265 271 264 264 274 286 296 295 300 305 315 324 329 336 343 344 341 344 345 342 340 344 344 342 347 351 356 1 0 360 1 1 1 1 3 1 1 2 4 3
244 251 258 265 266 261 265 275 284 286 288 289 293 310 321 322 331 338 340 340 344 344 348 348 344 344 342 342 345 351 358 0 1 3 3 3 2 7 7 5 4 4 2
247 252 258 261 262 258 263 269 273 277 280 278 286 299 313 319 327 335 338 340 339 342 344 344 343 342 342 341 340 343 353 357 0 4 4 2 4 8 8 9 8 5 0
247 253 257 257 255 253 257 262 266 272 276 278 285 295 304 319 323 329 333 333 334 340 349 346 344 342 341 340 341 342 347 351 357 1 3 3 6 7 8 11 10 11 8
248 251 250 248 246 248 253 258 266 273 277 279 286 291 302 314 319 321 329 330 336 335 342 347 349 349 344 346 348 345 345 346 350 354 359 1 5 6 7 8 13 14 15
243 245 243 240 242 244 248 261 270 273 278 278 278 289 302 306 311 316 323 328 330 329 336 341 345 350 352 352 352 350 347 345 346 348 353 360 3 4 4 6 7 15 15
240 236 235 238 240 244 258 265 271 279 279 275 275 285 298 297 305 308 314 323 322 325 331 338 342 347 350 347 348 351 351 349 349 350 352 355 0 1 4 4 6 11 12
230 232 236 236 239 252 260 271 279 277 273 273 280 288 291 292 301 305 307 315 318 318 327 330 332 338 342 340 342 345 347 349 350 351 353 355 356 358 359 3 6 7 8
230 233 233 237 248 256 256 267 276 279 271 271 286 291 297 297 296 300 300 306 314 318 320 325 326 330 337 336 336 340 345 349 350 349 349 352 355 355 356 356 4 6 6
233 233 233 242 252 255 253 259 265 267 271 279 289 296 297 301 298 294 294 298 301 307 309 313 318 322 327 329 333 334 338 344 345 347 348 349 351 351 351 353 355 360 5
231 230 238 251 258 256 252 255 271 269 271 278 285 294 299 302 300 291 288 293 294 297 301 304 308 312 317 321 325 327 331 335 337 339 341 341 343 346 347 347 348 351 356
231 235 244 255 255 252 256 263 270 275 277 278 282 289 295 296 295 291 290 289 290 295 298 300 303 307 311 313 316 322 326 328 329 330 332 334 336 338 340 341 343 344 346
233 241 250 259 261 261 269 275 279 280 280 281 282 288 294 296 296 296 296 294 295 299 299 300 304 308 310 311 314 318 320 322 324 326 327 328 328 329 329 330 331 333 337
241 242 252 260 268 269 275 278 281 287 289 282 281 289 290 291 292 296 297 299 300 300 298 300 305 307 310 312 313 315 316 318 319 320 321 322 322 322 322 321 321 321 322
244 253 255 264 267 272 278 280 279 283 286 281 283 285 288 292 293 295 295 299 301 300 299 301 306 309 310 310 310 313 315 317 319 320 320 321 321 320 318 316 314 312 311
250 258 261 266 268 268 275 279 280 280 281 284 284 287 291 293 295 296 299 301 301 299 299 303 306 309 308 307 309 312 315 317 320 321 321 321 319 317 315 312 309 306 302
252 256 259 262 263 265 268 272 277 278 281 285 288 289 290 293 295 296 298 300 299 298 299 301 303 306 306 307 309 311 315 317 318 319 318 317 314 312 310 309 308 306 304
250 250 252 253 253 256 263 268 272 276 281 285 287 287 291 297 298 298 298 299 298 297 297 299 302 306 308 308 309 312 315 317 317 316 315 312 310 311 312 311 309 307 305
242 246 251 255 258 263 265 269 275 279 281 284 289 286 289 297 302 296 294 297 298 298 299 301 303 306 308 309 311 314 317 317 315 312 309 309 310 311 310 308 306 306 306
249 255 257 259 262 265 269 274 277 278 282 283 287 289 291 297 300 299 297 296 296 297 299 301 303 305 308 311 312 314 315 313 308 308 309 308 308 308 308 307 307 309 311
252 254 261 265 268 268 271 275 280 282 282 281 282 289 294 296 299 299 298 297 297 299 302 305 308 309 310 312 314 312 308 306 308 309 307 307 308 311 312 313 313 312 311
Height
5832 5835 5836 5836 5836 5838 5839 5839 5838 5836 5835 5833 5831 5828 5825 5821 5817 5813 5808 5803 5798 5793 5787 5781 5775 5770 5764 5756 5750 5744 5736 5726 5716 5705 5694 5683 5671 5660 5648 5636 5625 5611 5596
5828 5831 5831 5832 5832 5833 5835 5834 5834 5833 5831 5829 5826 5824 5821 5818 5813 5808 5803 5799 5795 5789 5784 5779 5772 5766 5760 5754 5749 5741 5732 5722 5712 5702 5692 5681 5669 5658 5645 5632 5620 5606 5594
5824 5825 5826 5827 5829 5830 5830 5830 5830 5829 5827 5825 5823 5821 5818 5814 5809 5804 5800 5795 5791 5786 5782 5776 5770 5763 5759 5753 5747 5738 5730 5721 5711 5700 5689 5679 5668 5657 5644 5630 5618 5606 5593
5818 5819 5820 5822 5824 5826 5827 5827 5826 5824 5823 5822 5820 5816 5813 5810 5805 5800 5796 5792 5787 5783 5778 5772 5767 5762 5757 5751 5745 5737 5730 5720 5710 5699 5689 5678 5667 5655 5643 5632 5620 5606 5594
5813 5814 5817 5819 5820 5821 5822 5822 5822 5820 5819 5817 5815 5812 5809 5805 5802 5798 5794 5790 5785 5780 5775 5770 5764 5759 5755 5749 5743 5736 5729 5719 5709 5699 5689 5677 5666 5655 5644 5633 5620 5606 5596
5808 5810 5812 5813 5816 5817 5818 5818 5816 5815 5814 5812 5811 5808 5805 5802 5799 5795 5791 5787 5782 5778 5773 5767 5761 5755 5751 5745 5740 5734 5726 5718 5710 5699 5689 5677 5667 5655 5642 5632 5621 5609 5600
5803 5805 5808 5809 5811 5812 5812 5812 5811 5811 5809 5808 5807 5805 5802 5799 5795 5791 5788 5783 5779 5774 5769 5764 5758 5753 5748 5743 5737 5731 5725 5717 5709 5699 5688 5678 5669 5656 5644 5632 5621 5610 5601
5798 5801 5803 5804 5806 5807 5807 5807 5806 5806 5805 5804 5803 5801 5798 5794 5791 5788 5784 5780 5776 5771 5766 5761 5756 5751 5746 5741 5735 5728 5721 5715 5707 5698 5689 5680 5669 5656 5645 5634 5622 5611 5601
5793 5795 5798 5799 5800 5801 5802 5801 5801 5801 5800 5799 5797 5795 5793 5789 5788 5785 5781 5777 5773 5769 5763 5758 5754 5749 5744 5739 5732 5726 5719 5713 5706 5697 5689 5680 5669 5658 5647 5637 5627 5618 5607
5788 5791 5793 5794 5795 5796 5796 5796 5796 5795 5794 5793 5791 5789 5787 5785 5783 5781 5778 5774 5770 5766 5762 5757 5751 5746 5742 5736 5729 5723 5717 5711 5704 5697 5689 5680 5669 5660 5650 5640 5631 5621 5611
5783 5785 5788 5789 5790 5791 5790 5791 5790 5789 5788 5786 5785 5784 5782 5781 5779 5777 5774 5770 5767 5764 5759 5754 5749 5744 5738 5733 5728 5722 5716 5710 5704 5697 5689 5680 5670 5662 5653 5644 5635 5624 5615
5777 5780 5782 5784 5785 5785 5785 5785 5784 5783 5782 5781 5780 5778 5777 5776 5774 5773 5771 5767 5764 5760 5756 5751 5746 5740 5735 5731 5726 5720 5713 5708 5701 5694 5687 5679 5671 5663 5656 5648 5638 5628 5620
5772 5775 5777 5778 5779 5779 5779 5779 5778 5778 5777 5776 5775 5774 5773 5771 5769 5768 5767 5763 5760 5757 5752 5747 5743 5738 5732 5728 5723 5717 5711 5705 5699 5692 5685 5678 5672 5665 5657 5648 5640 5632 5624
5767 5770 5771 5772 5773 5774 5774 5774 5774 5773 5772 5771 5770 5769 5767 5765 5764 5762 5761 5759 5756 5752 5748 5744 5740 5736 5729 5724 5720 5714 5709 5703 5696 5690 5684 5677 5671 5664 5658 5651 5643 5635 5628
5761 5763 5764 5766 5768 5769 5769 5769 5769 5768 5768 5766 5765 5764 5762 5760 5758 5757 5755 5753 5750 5747 5744 5739 5736 5731 5726 5721 5715 5711 5705 5699 5693 5687 5681 5676 5670 5664 5657 5651 5644 5638 5631
5754 5757 5759 5761 5762 5763 5764 5763 5763 5762 5761 5760 5759 5758 5756 5754 5752 5750 5748 5746 5743 5741 5738 5734 5730 5726 5721 5716 5711 5706 5701 5696 5691 5685 5679 5674 5668 5663 5657 5651 5645 5639 5632
5750 5752 5755 5756 5757 5757 5757 5757 5756 5756 5755 5753 5752 5751 5749 5747 5745 5743 5741 5739 5736 5734 5730 5727 5723 5719 5715 5710 5706 5701 5697 5693 5687 5682 5677 5671 5665 5660 5655 5650 5644 5638 5631
5744 5747 5749 5750 5750 5750 5749 5749 5749 5748 5747 5746 5745 5744 5742 5740 5738 5736 5734 5732 5729 5727 5723 5720 5716 5713 5709 5705 5700 5695 5691 5687 5683 5678 5673 5667 5662 5657 5652 5647 5642 5636 5630
5738 5740 5741 5742 5742 5742 5741 5741 5741 5740 5739 5738 5738 5737 5735 5734 5733 5730 5728 5725 5723 5720 5717 5713 5710 5706 5702 5699 5694 5690 5685 5680 5676 5671 5666 5661 5656 5651 5646 5641 5636 5631 5627
5731 5732 5733 5734 5733 5733 5734 5734 5733 5733 5732 5731 5730 5729 5729 5728 5725 5723 5721 5718 5716 5712 5709 5706 5702 5699 5696 5692 5687 5682 5678 5673 5669 5664 5658 5653 5648 5643 5637 5633 5628 5624 5620
5724 5724 5725 5725 5725 5726 5726 5726 5726 5725 5724 5724 5723 5723 5722 5720 5718 5716 5713 5711 5708 5705 5702 5698 5695 5691 5688 5684 5679 5674 5669 5664 5659 5654 5648 5643 5638 5632 5627 5622 5618 5614 5611
5715 5716 5716 5717 5717 5718 5718 5718 5718 5717 5717 5717 5717 5717 5716 5713 5711 5708 5705 5703 5700 5697 5693 5690 5687 5683 5680 5675 5670 5665 5660 5654 5649 5643 5638 5632 5626 5621 5615 5611 5607 5604 5600
5707 5709 5710 5710 5711 5711 5711 5711 5711 5712 5712 5711 5710 5710 5708 5705 5703 5700 5697 5694 5692 5688 5685 5681 5678 5674 5670 5665 5660 5655 5649 5643 5638 5632 5625 5620 5615 5610 5606 5602 5597 5594 5590
5701 5702 5703 5704 5704 5705 5705 5705 5706 5706 5705 5704 5703 5703 5700 5697 5694 5691 5688 5685 5682 5679 5676 5672 5668 5663 5659 5654 5649 5644 5638 5632 5626 5620 5614 5609 5604 5600 5596 5592 5588 5585 5581
5695 5696 5696 5697 5698 5699 5700 5700 5699 5699 5698 5696 5695 5693 5690 5688 5685 5682 5679 5675 5672 5669 5665 5661 5656 5652 5648 5642 5637 5631 5625 5619 5613 5608 5604 5599 5595 5591 5587 5583 5580 5576 5572
5686 5688 5690 5690 5691 5691 5692 5692 5692 5692 5690 5688 5686 5684 5682 5679 5675 5672 5669 5666 5662 5658 5654 5650 5645 5640 5635 5629 5624 5618 5613 5607 5603 5598 5595 5590 5586 5582 5579 5575 5571 5567 5563